CES5402 ZGDY-RJCH

Flight info

Callsign CES5402
Flight time N/A
Altitude 35100
Route LIN A581 WHA R343 PK A593 AKARA/K0843F350 A593 LAMEN/N0456F350 A593 SADLI Y590 ELGEP/N0451F370 Y590 BEDAR Y591 FUE V28 DGC Y14 SAMON Z17 MRE V31 TAXIR YAKEI
Aircraft A320/M-SDE2E3FGILRWXY/LB2

Departure

Time 2026-05-07 02:30
Airport Zhangjiajie Hehua International Airport (ZGDY)

Arrival

Time N/A
Airport Hakodate Airport (RJCH)
Time Latitude Longitude Altitude Speed Heading
2026-05-07 02:13 29.10549 110.44531 703 ft 0 kts 345°
2026-05-07 02:19 29.10531 110.44537 698 ft 4 kts 335°
2026-05-07 02:19 29.10510 110.44553 694 ft 4 kts 297°
2026-05-07 02:19 29.10507 110.44575 697 ft 1 kts 252°
2026-05-07 02:20 29.10508 110.44579 697 ft 1 kts 252°
2026-05-07 02:22 29.10504 110.44562 706 ft 6 kts 255°
2026-05-07 02:22 29.10488 110.44490 703 ft 13 kts 256°
2026-05-07 02:23 29.10465 110.44388 704 ft 13 kts 256°
2026-05-07 02:23 29.10446 110.44289 709 ft 12 kts 259°
2026-05-07 02:23 29.10428 110.44190 703 ft 14 kts 256°
2026-05-07 02:23 29.10403 110.44079 710 ft 15 kts 256°
2026-05-07 02:24 29.10377 110.43961 710 ft 15 kts 256°
2026-05-07 02:24 29.10349 110.43834 717 ft 18 kts 256°
2026-05-07 02:24 29.10317 110.43689 718 ft 20 kts 256°
2026-05-07 02:24 29.10280 110.43528 724 ft 22 kts 255°
2026-05-07 02:25 29.10243 110.43358 723 ft 22 kts 256°
2026-05-07 02:25 29.10206 110.43195 728 ft 20 kts 256°
2026-05-07 02:25 29.10178 110.43073 727 ft 14 kts 252°
2026-05-07 02:25 29.10102 110.43054 726 ft 12 kts 166°
2026-05-07 02:26 29.10039 110.43077 725 ft 8 kts 152°
2026-05-07 02:26 29.10023 110.43140 723 ft 9 kts 76°
2026-05-07 02:26 29.10042 110.43225 728 ft 20 kts 76°
2026-05-07 02:26 29.10129 110.43611 729 ft 88 kts 75°
2026-05-07 02:27 29.10333 110.44526 694 ft 147 kts 76°
2026-05-07 02:27 29.10608 110.45773 1155 ft 162 kts 74°
2026-05-07 02:27 29.10898 110.47009 2041 ft 161 kts 73°
2026-05-07 02:27 29.11197 110.48226 2890 ft 158 kts 71°
2026-05-07 02:28 29.11486 110.49429 3702 ft 156 kts 71°
2026-05-07 02:28 29.11769 110.50618 4298 ft 157 kts 70°
2026-05-07 02:28 29.12077 110.51899 4500 ft 178 kts 71°
2026-05-07 02:28 29.12422 110.53339 4768 ft 195 kts 70°
2026-05-07 02:29 29.12781 110.54857 5317 ft 199 kts 71°
2026-05-07 02:29 29.13141 110.56393 5964 ft 201 kts 71°
2026-05-07 02:29 29.13456 110.57978 6581 ft 207 kts 76°
2026-05-07 02:29 29.13701 110.59627 7147 ft 213 kts 78°
2026-05-07 02:30 29.13931 110.61323 7726 ft 218 kts 78°
2026-05-07 02:30 29.14183 110.63055 8340 ft 223 kts 76°
2026-05-07 02:30 29.14522 110.64808 8884 ft 229 kts 75°
2026-05-07 02:30 29.14908 110.66608 9401 ft 237 kts 75°
2026-05-07 02:31 29.15314 110.68466 9901 ft 245 kts 75°
2026-05-07 02:31 29.15739 110.70413 10166 ft 263 kts 76°
2026-05-07 02:31 29.16199 110.72536 10342 ft 287 kts 76°
2026-05-07 02:31 29.16687 110.74807 10490 ft 309 kts 76°
2026-05-07 02:32 29.17215 110.77289 10624 ft 332 kts 76°
2026-05-07 02:32 29.17777 110.79937 10738 ft 353 kts 76°
2026-05-07 02:32 29.18370 110.82738 10894 ft 370 kts 76°
2026-05-07 02:32 29.18980 110.85632 11306 ft 378 kts 76°
2026-05-07 02:33 29.19599 110.88574 11785 ft 383 kts 76°
2026-05-07 02:33 29.20228 110.91551 12315 ft 387 kts 76°
2026-05-07 02:33 29.20866 110.94566 12893 ft 392 kts 76°
2026-05-07 02:33 29.21510 110.97612 13398 ft 396 kts 76°
2026-05-07 02:34 29.22160 111.00697 13867 ft 401 kts 76°
2026-05-07 02:34 29.22815 111.03815 14266 ft 405 kts 76°
2026-05-07 02:34 29.23476 111.06965 14676 ft 409 kts 76°
2026-05-07 02:34 29.24145 111.10150 15092 ft 413 kts 76°
2026-05-07 02:35 29.24820 111.13357 15540 ft 416 kts 76°
2026-05-07 02:35 29.25499 111.16588 15996 ft 419 kts 76°
2026-05-07 02:35 29.26180 111.19843 16421 ft 422 kts 76°
2026-05-07 02:35 29.26862 111.23127 16857 ft 425 kts 76°
2026-05-07 02:36 29.27549 111.26437 17295 ft 429 kts 76°
2026-05-07 02:36 29.28241 111.29766 17726 ft 432 kts 76°
2026-05-07 02:36 29.28938 111.33123 18166 ft 435 kts 76°
2026-05-07 02:36 29.29641 111.36509 18569 ft 438 kts 76°
2026-05-07 02:37 29.30349 111.39917 18933 ft 441 kts 76°
2026-05-07 02:37 29.31060 111.43347 19305 ft 444 kts 76°
2026-05-07 02:37 29.31776 111.46804 19675 ft 447 kts 76°
2026-05-07 02:37 29.32494 111.50277 20058 ft 449 kts 76°
2026-05-07 02:38 29.33216 111.53770 20411 ft 452 kts 76°
2026-05-07 02:38 29.33945 111.57284 20781 ft 454 kts 76°
2026-05-07 02:38 29.34663 111.60822 21183 ft 457 kts 76°
2026-05-07 02:38 29.35595 111.64307 21545 ft 458 kts 67°
2026-05-07 02:39 29.36963 111.67604 21886 ft 459 kts 58°
2026-05-07 02:39 29.38684 111.70698 22212 ft 461 kts 55°
2026-05-07 02:39 29.40444 111.73779 22550 ft 464 kts 54°
2026-05-07 02:39 29.42222 111.76878 22927 ft 466 kts 54°
2026-05-07 02:40 29.44015 111.79992 23260 ft 469 kts 54°
2026-05-07 02:40 29.45816 111.83122 23575 ft 471 kts 54°
2026-05-07 02:40 29.47622 111.86274 23840 ft 474 kts 54°
2026-05-07 02:40 29.49433 111.89444 24108 ft 476 kts 54°
2026-05-07 02:41 29.51250 111.92629 24359 ft 478 kts 54°
2026-05-07 02:41 29.53075 111.95831 24611 ft 480 kts 54°
2026-05-07 02:41 29.54908 111.99054 24940 ft 483 kts 54°
2026-05-07 02:41 29.56750 112.02297 25220 ft 485 kts 54°
2026-05-07 02:42 29.58599 112.05552 25475 ft 487 kts 54°
2026-05-07 02:42 29.60453 112.08822 25731 ft 490 kts 54°
2026-05-07 02:42 29.62314 112.12108 26007 ft 492 kts 54°
2026-05-07 02:42 29.64178 112.15400 26378 ft 491 kts 54°
2026-05-07 02:43 29.66043 112.18689 26751 ft 491 kts 54°
2026-05-07 02:43 29.67905 112.21975 27113 ft 491 kts 54°
2026-05-07 02:43 29.69768 112.25263 27491 ft 491 kts 54°
2026-05-07 02:43 29.71630 112.28553 27883 ft 491 kts 54°
2026-05-07 02:44 29.73489 112.31845 28248 ft 491 kts 54°
2026-05-07 02:44 29.75322 112.35101 28613 ft 491 kts 54°
2026-05-07 02:44 29.77175 112.38405 28980 ft 491 kts 54°
2026-05-07 02:44 29.79025 112.41712 29352 ft 492 kts 54°
2026-05-07 02:45 29.80875 112.45023 29726 ft 492 kts 54°
2026-05-07 02:45 29.82728 112.48338 30096 ft 492 kts 54°
2026-05-07 02:45 29.84583 112.51654 30416 ft 493 kts 54°
2026-05-07 02:45 29.86435 112.54972 30722 ft 493 kts 54°
2026-05-07 02:46 29.88288 112.58295 31027 ft 493 kts 54°
2026-05-07 02:46 29.90144 112.61623 31355 ft 494 kts 54°
2026-05-07 02:46 29.92000 112.64956 31673 ft 494 kts 54°
2026-05-07 02:46 29.93856 112.68293 31997 ft 494 kts 54°
2026-05-07 02:47 29.95710 112.71625 32325 ft 494 kts 54°
2026-05-07 02:47 29.97569 112.74964 32663 ft 495 kts 54°
2026-05-07 02:47 29.99428 112.78310 33025 ft 495 kts 54°
2026-05-07 02:47 30.01281 112.81657 33421 ft 495 kts 54°
2026-05-07 02:48 30.03134 112.85005 33776 ft 495 kts 54°
2026-05-07 02:48 30.04990 112.88357 34109 ft 496 kts 54°
2026-05-07 02:48 30.06843 112.91704 34378 ft 495 kts 54°
2026-05-07 02:48 30.08699 112.95058 34655 ft 495 kts 54°
2026-05-07 02:49 30.10548 112.98405 34922 ft 494 kts 53°
2026-05-07 02:49 30.12395 113.01750 35079 ft 494 kts 53°
2026-05-07 02:49 30.16084 113.08446 35116 ft 494 kts 53°
2026-05-07 02:50 30.19772 113.15143 35115 ft 494 kts 53°
2026-05-07 02:50 30.23464 113.21843 35118 ft 494 kts 53°
2026-05-07 02:51 30.27199 113.28510 35115 ft 494 kts 53°
2026-05-07 02:51 30.30318 113.34045 35113 ft 494 kts 52°
2026-05-07 02:52 30.34070 113.40707 35114 ft 495 kts 52°
2026-05-07 02:52 30.37813 113.47386 35114 ft 494 kts 53°
2026-05-07 02:53 30.41543 113.54082 35116 ft 495 kts 53°
2026-05-07 02:53 30.45266 113.60790 35113 ft 495 kts 53°
2026-05-07 02:54 30.48998 113.67494 35114 ft 495 kts 52°
2026-05-07 02:54 30.52724 113.74200 35111 ft 495 kts 52°
2026-05-07 02:55 30.56442 113.80925 35107 ft 495 kts 53°
2026-05-07 02:55 30.60158 113.87649 35112 ft 495 kts 52°
2026-05-07 02:56 30.63867 113.94364 35114 ft 495 kts 52°
2026-05-07 02:56 30.67580 114.01087 35120 ft 494 kts 52°
2026-05-07 02:57 30.71292 114.07811 35127 ft 494 kts 52°
2026-05-07 02:57 30.74991 114.14539 35131 ft 494 kts 52°
2026-05-07 02:58 30.78492 114.21433 35129 ft 499 kts 62°
2026-05-07 02:58 30.81043 114.28957 35132 ft 500 kts 65°
2026-05-07 02:59 30.83518 114.36527 35123 ft 501 kts 66°
2026-05-07 02:59 30.85948 114.44116 35119 ft 500 kts 66°
2026-05-07 03:00 30.88385 114.51693 35114 ft 500 kts 66°
2026-05-07 03:00 30.90842 114.59260 35106 ft 499 kts 66°
2026-05-07 03:01 30.93298 114.66823 35109 ft 499 kts 66°
2026-05-07 03:01 30.95743 114.74387 35105 ft 499 kts 66°
2026-05-07 03:02 30.98179 114.81959 35108 ft 499 kts 66°
2026-05-07 03:02 31.00615 114.89522 35113 ft 498 kts 66°
2026-05-07 03:03 31.03045 114.97082 35098 ft 498 kts 66°
2026-05-07 03:03 31.05464 115.04643 35107 ft 498 kts 66°
2026-05-07 03:04 31.07874 115.12199 35109 ft 497 kts 66°
2026-05-07 03:04 31.10282 115.19744 35120 ft 496 kts 66°
2026-05-07 03:05 31.12676 115.27294 35107 ft 495 kts 66°
2026-05-07 03:05 31.15080 115.34833 35120 ft 496 kts 66°
2026-05-07 03:06 31.17506 115.42290 35117 ft 494 kts 66°
2026-05-07 03:06 31.19944 115.49780 35123 ft 493 kts 66°
2026-05-07 03:07 31.22358 115.57266 35127 ft 492 kts 66°
2026-05-07 03:07 31.24754 115.64752 35129 ft 491 kts 66°
2026-05-07 03:08 31.27149 115.72225 35128 ft 491 kts 66°
2026-05-07 03:08 31.29537 115.79686 35131 ft 490 kts 67°
2026-05-07 03:09 31.31921 115.87139 35135 ft 489 kts 67°
2026-05-07 03:09 31.34318 115.94584 35135 ft 488 kts 66°
2026-05-07 03:10 31.36749 116.02000 35132 ft 488 kts 66°
2026-05-07 03:10 31.39172 116.09406 35126 ft 487 kts 67°
2026-05-07 03:11 31.41574 116.16809 35128 ft 486 kts 67°
2026-05-07 03:11 31.43965 116.24214 35127 ft 486 kts 67°
2026-05-07 03:12 31.46354 116.31603 35124 ft 485 kts 67°
2026-05-07 03:12 31.48733 116.39000 35120 ft 485 kts 68°
2026-05-07 03:13 31.51107 116.46391 35117 ft 485 kts 68°
2026-05-07 03:13 31.53487 116.53779 35114 ft 485 kts 68°
2026-05-07 03:14 31.55856 116.61182 35107 ft 485 kts 68°
2026-05-07 03:15 31.59395 116.72297 35103 ft 485 kts 68°
2026-05-07 03:15 31.61758 116.79721 35100 ft 486 kts 68°
2026-05-07 03:16 31.64119 116.87154 35094 ft 486 kts 68°
2026-05-07 03:16 31.66475 116.94592 35091 ft 487 kts 68°
2026-05-07 03:17 31.68831 117.02048 35088 ft 487 kts 69°
2026-05-07 03:17 31.71152 117.09529 35090 ft 488 kts 69°